Terminal Aerodrome Forecast
Issued by NWS Dodge City, KS

Home | Current Version | Previous Version | Graphics & Text | Print | Product List | Glossary Off
Versions: 1 2 3 4 5 6 7 8 9 10 11 12 13 14 15 16 17 18 19 20 21 22 23 24 25 26 27 28 29 30 31 32 33 34

000
FTUS43 KDDC 132320
TAFDDC
TAF
KDDC 132320Z 1400/1424 14015G25KT P6SM BKN250
     FM140600 14008KT P6SM BKN200
     FM140900 34013G23KT P6SM SCT200
     FM141800 36010G20KT P6SM SCT250
     FM142300 VRB04KT P6SM BKN090=

USA.gov is the U.S. government's official web portal to all federal, state and local government web resources and services.